Location: *
(50.3194°N, 7.1067°E)
Time: 09:12:29
(UTC+00:00)

FREGAT/IRIS - Pass Details

Date: 22 September 2019
Orbit: 347 x 350 km, 97.0° (Epoch: 19 October)

Event Time Altitude Azimuth Distance (km) Brightness Sun altitude
Exits shadow 18:57:44 - 179° (S) 1,537 5.4 -14.5°
Reaches altitude 10° 18:58:14 10° 181° (S) 1,325 5.1 -14.6°
Maximum altitude 19:01:00 53° 260° (W) 446 3.2 -15.0°
Drops below altitude 10° 19:03:48 10° 339° (NNW) 1,340 5.9 -15.4°
Sets 19:05:46 0° 344° (NNW) 2,192 6.9 -15.7°
